This is the latest recevied weather packets stored in our database for station/object KC8SWY-15. If no packets are shown the sender has not sent any weather packets the latest 10 day(s).
| Time | Temp. | Humidity | Pressure | Rain* | Wind** | Luminosity | Snow |
|---|---|---|---|---|---|---|---|
| 1777913973 | 22.22° C | 32% | 1002.2 hPa | 0 mm | - | - | - |
| 1777913673 | 22.78° C | 34% | 1002.3 hPa | 0 mm | - | - | - |
| 1777913373 | 22.78° C | 34% | 1002.4 hPa | 0 mm | - | - | - |
| 1777913073 | 22.22° C | 33% | 1002.5 hPa | 0 mm | - | - | - |
| 1777912773 | 22.22° C | 34% | 1002.6 hPa | 0 mm | - | - | - |
| 1777912473 | 21.67° C | 34% | 1002.6 hPa | 0 mm | - | - | - |
| 1777912173 | 21.67° C | 35% | 1002.8 hPa | 0 mm | - | - | - |
| 1777911873 | 21.67° C | 35% | 1002.8 hPa | 0 mm | - | - | - |
| 1777911573 | 21.67° C | 36% | 1002.8 hPa | 0 mm | - | - | - |
| 1777911274 | 21.67° C | 37% | 1003 hPa | 0 mm | - | - | - |
| 1777910974 | 21.67° C | 36% | 1003 hPa | 0 mm | - | - | - |
| 1777910674 | 21.67° C | 37% | 1003 hPa | 0 mm | - | - | - |
| 1777910374 | 21.11° C | 40% | 1003 hPa | 0 mm | - | - | - |
| 1777910074 | 21.11° C | 42% | 1003 hPa | 0 mm | - | - | - |
| 1777909774 | 20.56° C | 43% | 1003.1 hPa | 0 mm | - | - | - |
| 1777909474 | 20.56° C | 42% | 1003.1 hPa | 0 mm | - | - | - |
| 1777909174 | 20.56° C | 43% | 1003.1 hPa | 0 mm | - | - | - |
| 1777908874 | 20.56° C | 42% | 1003.2 hPa | 0 mm | - | - | - |
| 1777908574 | 20.56° C | 42% | 1003.4 hPa | 0 mm | - | - | - |
| 1777908274 | 20.56° C | 45% | 1003.3 hPa | 0 mm | - | - | - |
| 1777907974 | 20° C | 47% | 1003.4 hPa | 0 mm | - | - | - |
| 1777907674 | 19.44° C | 46% | 1003.5 hPa | 0 mm | - | - | - |
| 1777907374 | 19.44° C | 46% | 1003.6 hPa | 0 mm | - | - | - |
| 1777907074 | 19.44° C | 49% | 1003.7 hPa | 0 mm | - | - | - |
| 1777906774 | 19.44° C | 50% | 1003.7 hPa | 0 mm | - | - | - |
* Rain latest hour (hover to see other rain measurements)
** Current wind speed in m/s (hover to see current wind gust speed)